#timestamp,LO_Frequency,Hit,StdDev 
1514008815.4,286047002.6,N
1514008835.3,286047002.0,N
1514008855.1,286047002.8,N
1514008875.8,286047002.4,N
1514008895.7,286047001.2,N
1514008915.5,286046998.2,N
1514008935.4,286047002.3,N
1514008955.2,286047004.3,N
1514008975.0,286047001.0,N
1514008975.9,286047001.0,N
1514008995.8,286047001.1,N
1514009015.6,286046998.6,N
1514009035.5,286046998.5,N
1514009055.3,286047000.1,N
1514009075.1,286046998.6,N
1514009095.9,286046997.8,N
1514009115.7,286047000.8,N
1514009135.6,286046999.8,N
1514009155.4,286046999.9,N
1514009175.2,286047002.8,N
1514009195.1,286047000.2,N
1514009196.0,286047000.2,N
1514009215.8,286047000.6,N
1514009235.7,286047000.6,N
1514009255.5,286046999.6,N
1514009275.3,286047001.0,N
1514009295.2,286046998.4,N
1514009315.0,286047000.7,N
1514009315.9,286047000.7,N
1514009335.7,286047000.6,N
1514009355.6,286046999.2,N
1514009375.4,286046999.2,N
1514009395.3,286047002.7,N
1514009415.1,286047000.9,N
1514009416.0,286047000.9,N
1514009435.8,286047001.0,N
1514009455.7,286046999.6,N
1514009475.5,286046998.9,N
1514009495.4,286046999.0,N
1514009515.2,286046998.7,N
1514009535.0,286047000.4,N
1514009535.9,286047000.4,N
1514009555.8,286047000.3,N
1514009575.6,286046999.7,N
1514009595.4,286047000.2,N
1514009615.3,286047011.9,Y
1514009635.1,286047000.4,P
1514009655.9,286046999.9,N
1514009675.7,286046999.9,N
1514009695.5,286047002.6,Y
1514009715.4,286047004.4,P
1514009735.2,286047003.9,N
1514009755.1,286047001.9,N
1514009756.0,286047001.9,N
1514009775.8,286046999.7,N
1514009795.6,286047002.4,N
1514009815.5,286047000.9,N
1514009835.3,286047001.0,N
1514009855.2,286046998.2,N
1514009875.9,286047000.7,N
1514009895.7,286046998.2,N
1514009915.6,286047001.2,N
1514009935.4,286047000.8,N
1514009955.2,286047004.4,N
1514009975.1,286047005.2,N
1514009976.0,286047005.2,N
1514009995.8,286047004.2,N
1514010015.7,286047003.7,N
1514010035.5,286047002.1,N
1514010055.3,286047002.1,N
1514010075.2,286047001.4,N
1514010095.0,286047002.0,N
1514010095.9,286047002.0,N
1514010115.8,286047001.0,N
1514010135.6,286046999.8,N
1514010155.4,286047000.6,N
1514010175.3,286047001.6,N
1514010195.1,286047003.6,N
1514010215.9,286047001.3,N
1514010235.7,286047001.6,N
1514010255.5,286047001.7,N
1514010275.4,286046998.2,N
1514010295.2,286046998.1,N
1514010315.0,286047000.8,N
1514010316.0,286047000.8,N
1514010335.8,286047000.5,N
1514010355.6,286047000.6,N
1514010375.5,286047000.9,N
1514010395.3,286047002.1,N
1514010415.1,286047004.1,N
1514010435.9,286047007.2,Y
1514010455.7,286047003.1,P
1514010475.6,286047004.2,P
1514010495.4,286047004.3,P
1514010515.2,286047005.2,Y
1514010535.1,286047001.2,P
1514010536.0,286047001.2,N
1514010555.8,286046999.9,N
1514010575.7,286047000.4,N
1514010595.5,286047002.7,N
1514010615.3,286046998.4,N
1514010635.2,286046998.7,N
1514010655.0,286046996.5,N
1514010655.9,286046996.5,N
1514010675.8,286046999.6,N
1514010695.6,286046999.2,N
1514010715.4,286046999.2,N
1514010735.3,286046997.8,N
1514010755.1,286046997.2,N
1514010775.8,286046995.8,N
1514010795.7,286046995.7,N
1514010815.5,286046996.4,N
1514010835.4,286046995.6,N
1514010855.2,286046993.9,N
1514010875.0,286046993.5,N
1514010875.9,286046993.5,N
1514010895.8,286046996.3,N
1514010915.6,286046993.7,N
1514010935.5,286046995.0,N
1514010955.3,286046996.1,N
1514010975.1,286046995.3,N
1514010995.9,286046995.6,N
1514011015.7,286046997.2,N
1514011035.5,286046997.9,N
1514011055.4,286046997.6,N
1514011075.2,286046997.2,N
1514011095.1,286046998.9,N
1514011096.0,286046998.9,N
1514011115.8,286046998.7,N
1514011135.6,286046997.7,N
1514011155.5,286046997.1,N
1514011175.3,286046995.4,N
1514011195.2,286046997.1,N
1514011215.9,286046997.6,N
1514011235.7,286046996.9,N
1514011255.6,286046998.6,N
1514011275.4,286046999.1,N
1514011295.2,286046999.1,N
1514011315.1,286046996.6,N
1514011316.0,286046996.6,N
1514011335.8,286046998.9,N
1514011355.7,286046999.5,N
1514011375.5,286046996.2,N
1514011395.3,286046995.2,N
1514011415.2,286046996.1,N
1514011435.0,286046995.0,Y
1514011435.9,286046995.0,P
1514011455.8,286046996.5,P
1514011475.6,286046996.6,P
1514011495.4,286046997.7,Y
1514011515.3,286047000.0,P
1514011535.1,286047000.9,N
1514011555.9,286046999.9,N
1514011575.7,286047000.0,N
1514011595.5,286047000.5,N
1514011615.4,286046999.0,N
1514011635.2,286046999.2,N
1514011655.0,286046998.7,N
1514011656.0,286046998.7,N
1514011675.8,286046999.0,N
1514011695.6,286046996.6,N
1514011715.5,286046996.9,N
1514011735.3,286046996.5,N
1514011755.1,286046998.2,N
1514011775.9,286046999.7,N
1514011795.7,286047004.1,N
1514011815.6,286047001.5,N
1514011835.4,286047000.1,N
1514011855.2,286047002.5,N
1514011875.1,286047000.6,N
1514011876.0,286047000.6,N
1514011895.8,286047002.6,N
1514011915.7,286047001.2,N
1514011935.5,286046999.9,N
1514011955.3,286047000.9,N
1514011975.2,286047000.1,N
1514011995.0,286047004.0,N
1514011995.9,286047004.0,N
1514012015.7,286047006.0,N
1514012035.6,286047005.8,N
1514012055.4,286047005.7,N
1514012075.3,286047005.5,N
1514012095.1,286047003.4,N
1514012115.8,286047003.5,N
1514012135.7,286047004.9,N
1514012155.5,286047003.3,N
1514012175.4,286047000.7,N
1514012195.2,286047000.2,N
1514012215.0,286047000.7,N
1514012215.9,286047000.7,N
1514012235.8,286046999.7,N
1514012255.6,286047001.8,N
1514012275.5,286047001.9,N
1514012295.3,286047002.1,N
1514012315.1,286047002.0,N
1514012335.9,286047004.4,N
1514012355.7,286047002.5,N
1514012375.5,286047002.5,N
1514012395.4,286047004.1,N
